Bodensee (Kressbronn): 6,7°C  -  Teich der Wetterzentrale Bad Schussenried: 6,1°C |  Schneehöhe Kreuzthal-Steinberg (930 m ü. NN): 8 cm   
01.04.2020Höhe
ü. NN
ZeitTemperatur (°C)Nieder-
schlag
Luft-
feuchte
Luft-
druck
Wind
StationaktuellMinimumMaximumaktuellMaximum
Aldingen654 m04:11-2,2-2,6 (07:35)-0,3 (16:02)0,0 l/m²73%1024,11,9 km/h (1 Bft) S-SW29,6 km/h (5 Bft) W (14:48)
Allmendingen541 m04:10-5,2-5,2 (07:35)-2,1 (15:10)0,0 l/m²85%1023,91,6 km/h (1 Bft) O-NO35,4 km/h (5 Bft) O (15:35)
Altshausen574 m04:10-2,6-2,6 (04:07)-1,1 (00:16)0,0 l/m²63%1021,76,4 km/h (2 Bft) N-NO8,0 km/h (2 Bft) N-NO (01:07)
Amstetten-Reutti663 m04:10-3,6-3,6 (05:15)-1,5 (16:55)0,0 l/m²82%1023,74,8 km/h (1 Bft) O48,3 km/h (6 Bft) W (15:55)
Amtzell-Grenis677 m04:10-2,8-3,1 (03:35)-1,4 (00:00)0,0 l/m²60%1023,66,4 km/h (2 Bft) W-SW6,4 km/h (2 Bft) W-SW (00:00)
Aulendorf570 m04:10-1,9-1,9 (03:56)-0,5 (00:00)0,0 l/m²68%1022,56,4 km/h (2 Bft) NO11,3 km/h (2 Bft) NO (02:20)
Bad Krozingen233 m04:10-0,7-0,7 (07:30)3,7 (16:05)0,0 l/m²70%1023,50,0 km/h (0 Bft) S-SW38,1 km/h (5 Bft) N (17:05)
Bad Saulgau595 m04:10-3,9-3,9 (06:45)-1,9 (15:00)0,0 l/m²82%1022,20,0 km/h (0 Bft) SO25,7 km/h (4 Bft) S (11:35)
Bad Saulgau, Mannsgrab588 m04:02-4,2-4,3 (03:44)-1,7 (00:17)0,0 l/m²85%1024,80,0 km/h (0 Bft) W-NW0,0 km/h (0 Bft) N (00:00)
Bad Saulgau-Lampertsweiler627 m04:10-1,5-1,6 (04:10)0,2 (00:00)0,0 l/m²71%1025,320,9 km/h (4 Bft) N-NW22,5 km/h (4 Bft) N-NW (01:15)
Bad Schussenried572 m04:10-3,1-3,1 (03:50)-1,1 (00:00)0,0 l/m²84%1021,90,0 km/h (0 Bft) NO9,7 km/h (2 Bft) NO (03:15)
Bergatreute615 m01:45-0,7-0,7 (00:45)0,0 (00:00)0,0 l/m²77%1023,512,9 km/h (3 Bft) NO16,1 km/h (3 Bft) O-NO (01:40)
Biberach (Riss), Boehringer533 m04:20-3,4-3,5 (04:20)-1,1 (00:30)0,0 l/m²86%1022,66,5 km/h (2 Bft) N-NW11,9 km/h (3 Bft) N (03:00)
Biberach (Riss), Realschule553 m04:10-2,9-2,9 (04:10)-0,3 (00:00)0,0 l/m²82%1024,46,4 km/h (2 Bft) N-NW11,3 km/h (2 Bft) N-NO (03:35)
Burgrieden523 m04:10-2,8-2,8 (04:05)-0,4 (00:00)0,0 l/m²78%1023,50,0 km/h (0 Bft) NO4,8 km/h (1 Bft) O-NO (02:50)
Burgrieden-Hochstetten510 m04:10-3,3-3,3 (06:50)-0,9 (15:40)0,0 l/m²86%1023,94,8 km/h (1 Bft) N-NW25,7 km/h (4 Bft) NO (12:55)
Ebersbach579 m04:10-1,8-1,8 (04:10)-0,1 (00:00)0,0 l/m²78%1023,86,4 km/h (2 Bft) N-NW16,1 km/h (3 Bft) NO (01:25)
Ebersbach-Boos605 m04:10-2,7-2,7 (03:25)-0,1 (00:00)0,0 l/m²82%1023,614,5 km/h (3 Bft) O-NO22,5 km/h (4 Bft) O (01:00)
Ebersbach-Menzenweiler661 m04:10-2,6-2,6 (04:10)-0,6 (00:00)0,0 l/m²82%1023,619,3 km/h (3 Bft) NO24,1 km/h (4 Bft) O-NO (01:05)
Ehingen535 m01:10-2,5-2,5 (01:10)-1,3 (00:05)0,0 l/m²70%1025,40,0 km/h (0 Bft) N-NO5,0 km/h (1 Bft) N-NO (00:15)
Erlenmoos645 m04:10-2,5-2,5 (04:05)-0,9 (00:00)0,0 l/m²84%1023,58,0 km/h (2 Bft) O-NO12,9 km/h (3 Bft) O-NO (01:35)
Ertingen569 m04:10-2,6-2,7 (02:50)-0,6 (00:00)0,0 l/m²82%1023,416,1 km/h (3 Bft) N16,1 km/h (3 Bft) N-NO (04:10)
Friedrichshafen405 m04:10-0,7-0,7 (06:45)0,9 (13:30)0,0 l/m²74%1023,19,7 km/h (2 Bft) N-NO27,4 km/h (4 Bft) NO (15:10)
Günzburg443 m04:10-3,4-3,4 (04:10)-1,1 (00:00)0,0 l/m²85%1021,70,0 km/h (0 Bft) NO0,0 km/h (0 Bft) NO (00:00)
Hochdorf-Appendorf537 m04:10-4,2-4,4 (03:40)-1,7 (00:15)0,0 l/m²64%1023,33,2 km/h (1 Bft) NO14,5 km/h (3 Bft) N-NW (03:20)
Höchsten802 m04:10-2,9-2,9 (03:45)-1,4 (00:00)0,0 l/m²78%1021,119,3 km/h (3 Bft) NO25,7 km/h (4 Bft) NO (02:45)
Horgenzell618 m04:00-1,9-1,9 (03:45)-0,6 (00:05)0,0 l/m²76%1021,214,5 km/h (3 Bft) N-NO19,3 km/h (3 Bft) N-NO (00:50)
Hoßkirch632 m04:10-4,5-4,5 (04:10)-1,0 (00:15)0,0 l/m²84%1022,43,2 km/h (1 Bft) O-NO14,5 km/h (3 Bft) O-NO (00:20)
Isny, Am Dreifingerbach695 m04:10-2,6-2,9 (02:30)0,1 (01:00)0,0 l/m²76%1022,20,0 km/h (0 Bft) W14,5 km/h (3 Bft) O-NO (01:05)
Isny, Weidachweg706 m04:10-1,1-1,3 (01:25)0,3 (00:25)0,0 l/m²62%1024,46,4 km/h (2 Bft) W-NW12,9 km/h (3 Bft) W (00:10)
Kappel-Grafenhausen163 m04:050,90,9 (06:55)3,3 (14:55)0,0 l/m²65%1021,61,6 km/h (1 Bft) N-NO30,6 km/h (5 Bft) N-NO (16:55)
Kißlegg-Staibshof709 m04:10-2,4-2,5 (03:50)-0,9 (00:00)0,0 l/m²81%1023,24,8 km/h (1 Bft) O-NO14,5 km/h (3 Bft) O (01:50)
Kressbronn398 m04:12-0,5-0,5 (04:10)1,4 (00:00)0,0 l/m²69%1021,78,0 km/h (2 Bft) NO22,5 km/h (4 Bft) NO (00:54)
Kreuzthal-Steinberg-Alpe930 m04:10-4,3-4,8 (04:00)-2,5 (00:00)0,0 l/m²90%1023,02,5 km/h (1 Bft) O-SO22,0 km/h (4 Bft) W-NW (00:10)
Kreuzthal-Steinberggipfel1040 m04:10-3,6-4,0 (02:20)-3,1 (00:10)-79%1023,015,1 km/h (3 Bft) O-NO37,1 km/h (5 Bft) O-SO (00:10)
Kristberg im Montafon (AT)1425 m04:10-5,6-5,9 (02:56)-5,3 (00:40)0,0 l/m²62%1026,20,0 km/h (0 Bft) O-SO10,1 km/h (2 Bft) NO (01:47)
Laupheim500 m04:10-2,7-2,8 (03:10)0,0 (00:00)0,0 l/m²80%1023,08,0 km/h (2 Bft) O-NO9,7 km/h (2 Bft) O-SO (00:20)
Leutkirch-Heggelbach670 m04:10-3,8-3,8 (04:10)-2,6 (00:30)0,0 l/m²83%1022,66,4 km/h (2 Bft) NO8,0 km/h (2 Bft) N-NO (03:30)
Lindau-Insel420 m04:10-0,5-0,5 (07:25)1,8 (14:55)0,0 l/m²69%1022,23,2 km/h (1 Bft) O-NO29,0 km/h (5 Bft) NO (17:05)
Lindau-Stadt412 m04:10-1,3-1,3 (07:25)1,2 (14:55)0,0 l/m²73%1022,43,2 km/h (1 Bft) NO33,8 km/h (5 Bft) N-NO (15:40)
Maierhöfen im Allgäu733 m04:10-2,4-2,4 (04:10)-1,2 (01:35)0,0 l/m²73%1022,711,3 km/h (2 Bft) O-SO25,7 km/h (4 Bft) O-SO (02:05)
Maselheim543 m04:10-4,4-4,4 (06:40)-2,3 (13:20)0,0 l/m²83%1023,90,0 km/h (0 Bft) S-SW24,1 km/h (4 Bft) O-NO (15:20)
Maselheim-Sulmingen548 m04:10-4,2-4,3 (06:40)-2,2 (15:15)0,0 l/m²87%1025,20,0 km/h (0 Bft) N20,9 km/h (4 Bft) N-NO (12:15)
Mietingen-Baltringen528 m04:10-3,9-4,1 (03:25)-1,3 (00:45)0,0 l/m²83%1025,30,0 km/h (0 Bft) O-NO4,8 km/h (1 Bft) N-NO (01:20)
Mindelheim-Apfeltrach620 m04:11-4,7-4,7 (04:11)-2,7 (00:00)0,0 l/m²86%1025,00,0 km/h (0 Bft) NO0,0 km/h (0 Bft) O-NO (00:00)
Mittelbiberach577 m04:11-3,2-3,2 (04:00)-1,0 (00:16)0,0 l/m²80%1024,60,0 km/h (0 Bft) NO11,2 km/h (2 Bft) NO (01:21)
Neresheim552 m04:00-5,5-5,5 (04:00)-2,0 (00:00)0,0 l/m²85%1022,70,0 km/h (0 Bft) O4,0 km/h (1 Bft) NO (01:00)
Neukirch570 m04:10-2,6-2,7 (05:25)-0,9 (14:35)0,0 l/m²80%1022,79,7 km/h (2 Bft) N-NO37,0 km/h (5 Bft) N-NO (11:55)
Ochsenhausen, Birkenstraße613 m04:10-4,4-4,4 (07:10)-2,2 (12:50)0,0 l/m²80%1024,00,0 km/h (0 Bft) SO3,2 km/h (1 Bft) S-SW (07:05)
Ochsenhausen, Unt. Wiesen575 m04:10-4,4-4,6 (03:50)-2,4 (00:00)0,0 l/m²85%1025,20,0 km/h (0 Bft) NO4,8 km/h (1 Bft) NO (00:00)
Opfenbach-Göritz561 m04:11-4,8-5,1 (03:56)-2,8 (00:00)0,0 l/m²78%1020,91,4 km/h (1 Bft) O-NO6,5 km/h (2 Bft) O-NO (00:18)
Ostrach619 m04:10-3,7-3,7 (03:45)-0,6 (00:00)0,0 l/m²86%1021,93,2 km/h (1 Bft) N-NO4,8 km/h (1 Bft) NO (00:00)
Ravensburg, Goethestraße428 m04:10-0,4-0,4 (04:00)1,3 (00:00)0,0 l/m²75%1022,46,4 km/h (2 Bft) O-NO14,5 km/h (3 Bft) O-NO (02:45)
Ravensburg-Wernsreute511 m04:10-2,1-2,1 (06:15)0,0 (15:50)0,0 l/m²78%1025,214,5 km/h (3 Bft) N-NO35,4 km/h (5 Bft) N-NO (11:45)
Reichenbach an der Fils343 m04:10-1,6-1,6 (04:10)1,0 (00:00)0,0 l/m²75%1026,13,2 km/h (1 Bft) O-SO11,3 km/h (2 Bft) O (01:20)
Riedlingen530 m04:10-2,4-2,4 (04:05)-1,0 (00:00)0,0 l/m²80%1023,70,0 km/h (0 Bft) NO0,0 km/h (0 Bft) N (00:00)
Rißtissen489 m04:10-2,2-2,2 (04:10)-0,2 (00:00)0,0 l/m²84%1021,21,6 km/h (1 Bft) O-NO8,0 km/h (2 Bft) O-NO (03:30)
Rottweil-Hausen681 m04:13-3,6-3,7 (03:28)-1,9 (00:00)0,0 l/m²80%1024,03,2 km/h (1 Bft) N-NO6,5 km/h (2 Bft) NO (02:14)
Schemmerhofen520 m04:002,72,7 (00:00)2,7 (00:00)0,0 l/m²55%1022,70,0 km/h (0 Bft) NO0,0 km/h (0 Bft) NO (00:00)
Silbertal im Montafon (AT)884 m04:10-3,7-3,7 (04:08)-1,6 (00:01)0,0 l/m²84%1026,00,0 km/h (0 Bft) O-NO0,0 km/h (0 Bft) O-NO (00:00)
Tettnang466 m04:09-0,6-0,6 (04:07)1,0 (00:00)0,0 l/m²70%1022,611,2 km/h (2 Bft) N-NW16,2 km/h (3 Bft) O-SO (01:07)
Tuttlingen648 m04:06-3,3-3,6 (03:56)-2,1 (00:01)0,0 l/m²73%1024,30,0 km/h (0 Bft) N-NO5,2 km/h (1 Bft) W-SW (03:26)
Tuttlingen, Möhringer-Vorstadt711 m04:10-4,1-4,1 (07:10)-2,4 (16:05)0,0 l/m²82%1023,44,8 km/h (1 Bft) O-NO25,7 km/h (4 Bft) N-NW (12:35)
Ummendorf547 m04:10-2,7-2,9 (03:50)-0,7 (00:10)0,0 l/m²65%1024,70,0 km/h (0 Bft) O16,1 km/h (3 Bft) O (01:05)
Ummendorf-Fischbach558 m04:10-4,1-4,3 (03:55)-1,9 (01:25)0,0 l/m²68%1024,30,0 km/h (0 Bft) O0,0 km/h (0 Bft) O (00:00)
Waldburg707 m04:10-2,1-2,1 (03:30)-0,8 (00:00)0,0 l/m²76%1022,29,7 km/h (2 Bft) N19,3 km/h (3 Bft) N (02:35)
Waltenhofen im Allgäu720 m04:10-6,3-6,3 (03:55)-2,2 (01:05)0,0 l/m²87%1023,30,0 km/h (0 Bft) N-NW17,7 km/h (3 Bft) N-NW (11:50)
Wangen, Südring548 m04:10-2,5-2,5 (04:07)-0,3 (00:00)0,0 l/m²80%1022,43,2 km/h (1 Bft) NO13,0 km/h (3 Bft) NO (01:25)
Warthausen-Birkenhard581 m04:13-3,3-3,4 (03:48)-1,2 (00:00)0,0 l/m²83%1023,611,9 km/h (3 Bft) NO11,9 km/h (3 Bft) N-NO (02:49)
Winterlingen785 m04:00-4,9-4,9 (04:00)-2,8 (01:00)0,0 l/m²82%1023,02,5 km/h (1 Bft) N-NO3,6 km/h (1 Bft) NO (00:55)

Werbung
niederschlagsdatenbank | info | login - erfassung

Sollten Sie Interesse haben, an der Niederschlagsdatenbank teilzunehmen, finden Sie > hier < weitere Informationen.

Niederschlagsdaten der Station Hüttisheim - Ulmer Weg 2

Reinhold Fuger

Niederschlagsstation aufgenommen ins Stationsnetz der Wetterwarte Süd am 16.07.2009
Monat: .
Anmerkung:0,0 = nicht messbarer Niederschlag
 -  = kein Niederschlag

Stationsdaten

Höhe

509 m

Lage

Auf Google Maps ansehen

Beschreibung

Die Station liegt am nordlichen Ortsrand von Hüttisheim. Hüttisheim liegt ca 18 km südlich von Ulm. Nach Westen liegt die Station frei ohne Erhöhung, eher fällt das Gelände langsam Richtung Donautal. Die Bodenbeschaffenheit besteht teilw. aus Kiesbänken, oder lehmigem Sand. Nach Osten erhebt sich ein Höhenrücken, der sich über die sogenannten Holzstöcke bis nach Weihungszell ersteckt und von ca 540 m langsam weiter ansteigt.
< März 2020

April 2020

TagNiederschlagBemerkung
01.-
02.-
03.-
04.-
05.-
06.-
07.-
08.-
09.-
10.-
11.-
12.-
13.-
14.-
15.-
16.-
17.-
18.-
19.-
20.-
21.-
22.-
23.-
24.-
25.-
26.-
27.-
28.-
29.-
30.-
Gesamt:0,0 
Die Spalten "Tag" und "Niederschlag" lassen sich durch Klicken auf den Spaltenkopf sortieren.
Die Angaben sind in l/m².

< März 2020


Monats- und Jahresniederschlag


Wetterbeobachtungen Legende:

  • Regen
  • Nieselregen
  • Schneeregen
  • Schnee
  • Graupel
  • Eiskörner
  • Hagel
  • Bodennebel
  • Gewitter
  • Nebelnässe
  • Schneegriesel

Grafische Darstellung der Niederschläge der Station Hüttisheim April 2020

 
wetterstationen
wetterstationen
- derzeit 83 Stationen
niederschlagsdatenbank
wetterstationen
- kartographische Darstellung
niederschlagsdatenbank
niederschlagsstationen
- derzeit 112 Stationen
niederschlagsdatenbank
niederschlagsstationen
- kartographische Darstellung
 
  treffpunkt & service
--- Anzeigen --------------------------------
zugriffe:
insgesamt: 46.623.012
aktueller monat: 201
heute: 201
momentan online: 4
 
 
monatshöchstwert: 653.625
vorheriger monat: 364.213
gestern: 13.565
tageshöchstwert: 57.073
 
wetterwarte süd
 
konradstraße 3
info@wetterwarte-sued.com
roland roth
 
88427 bad schussenried